GW4489 Weather Reports


time (UTC)temp
C
wind
direction
speed
KPH
gust
KPH
rain 1hr
cm
rain 24hr
cm
rain mn
cm
humidity
%
barometer
mb
20260906022512 24 11 3.2 8.0 0.00 0.00 0.00 86 1013.6
20260906022012 24 19 4.8 8.0 0.00 0.00 0.00 85 1013.6
20260906021529 24 23 3.2 8.0 0.00 0.00 0.00 84 1013.5
20260906021015 25 90 0.0 0.0 0.00 0.00 0.00 83 1013.5
20260906020516 25 92 0.0 0.0 0.00 0.00 0.00 83 1013.3
20260906020043 25 92 0.0 0.0 0.00 0.00 0.00 83 1013.1
20260906015509 25 92 0.0 0.0 0.00 0.00 0.00 82 1013.1
20260906015007 25 92 0.0 0.0 0.00 0.00 0.00 82 1013.1
20260906014514 25 92 0.0 0.0 0.00 0.00 0.00 81 1013.0
20260906014012 25 92 0.0 0.0 0.00 0.00 0.00 81 1013.0
20260906013506 25 92 0.0 0.0 0.00 0.00 0.00 81 1012.9
20260906013019 25 92 0.0 0.0 0.00 0.00 0.00 82 1012.9
20260906012510 25 92 0.0 0.0 0.00 0.00 0.00 81 1012.9
20260906012014 25 92 0.0 3.2 0.00 0.00 0.00 81 1012.9
20260906011527 25 92 0.0 4.8 0.00 0.00 0.00 80 1012.9
20260906011017 25 92 1.6 4.8 0.00 0.00 0.00 81 1012.8
20260906010516 25 92 0.0 1.6 0.00 0.00 0.00 79 1012.9
20260906010006 25 92 0.0 4.8 0.00 0.00 0.00 79 1012.9
20260906005502 26 92 0.0 4.8 0.00 0.00 0.00 79 1013.1
20260906005005 26 92 0.0 4.8 0.00 0.00 0.00 77 1013.1
20260906004510 26 92 0.0 4.8 0.00 0.00 0.00 77 1013.1
20260906004006 26 92 0.0 4.8 0.00 0.00 0.00 77 1013.1
20260906003506 26 92 1.6 4.8 0.00 0.00 0.00 76 1013.2
20260906003019 26 92 0.0 4.8 0.00 0.00 0.00 75 1013.3
20260906002505 27 92 1.6 4.8 0.00 0.00 0.00 74 1013.2
20260906002003 27 51 0.0 0.0 0.00 0.00 0.00 73 1013.2
20260906001503 28 51 0.0 0.0 0.00 0.00 0.00 71 1013.1
20260906001002 28 51 0.0 1.6 0.00 0.00 0.00 71 1013.2
20260906000503 28 51 0.0 1.6 0.00 0.00 0.00 68 1013.2
20260906000004 28 51 0.0 3.2 0.00 0.00 0.00 67 1013.1
20260905235503 29 51 0.0 3.2 0.00 0.00 0.00 66 1013.2
20260905235004 30 51 1.6 3.2 0.00 0.00 0.00 65 1013.1
20260905234510 30 238 0.0 1.6 0.00 0.00 0.00 63 1013.0
20260905234004 31 234 0.0 1.6 0.00 0.00 0.00 62 1013.1
20260905233507 31 235 0.0 1.6 0.00 0.00 0.00 61 1013.0
20260905233017 31 205 0.0 0.0 0.00 0.00 0.00 59 1012.8
20260905232510 32 205 0.0 0.0 0.00 0.00 0.00 58 1012.8
20260905232007 32 205 0.0 0.0 0.00 0.00 0.00 58 1012.8
20260905231513 32 205 0.0 1.6 0.00 0.00 0.00 58 1012.8
20260905231005 32 205 0.0 3.2 0.00 0.00 0.00 57 1012.8
20260905230507 32 247 0.0 4.8 0.00 0.00 0.00 60 1012.9
20260905230003 32 243 1.6 4.8 0.00 0.00 0.00 57 1012.9
20260905225502 32 250 3.2 4.8 0.00 0.00 0.00 57 1012.8
20260905225004 32 250 0.0 4.8 0.00 0.00 0.00 57 1012.8
20260905224504 32 250 1.6 4.8 0.00 0.00 0.00 55 1012.7
20260905224002 32 250 0.0 4.8 0.00 0.00 0.00 56 1012.7
20260905223505 33 309 0.0 3.2 0.00 0.00 0.00 55 1012.7
20260905223029 33 309 0.0 4.8 0.00 0.00 0.00 55 1012.8
20260905222509 33 31 0.0 4.8 0.00 0.00 0.00 54 1012.8
20260905222009 32 212 0.0 4.8 0.00 0.00 0.00 55 1012.8
20260905221534 32 212 1.6 6.4 0.00 0.00 0.00 56 1012.9
20260905221012 32 212 0.0 6.4 0.00 0.00 0.00 54 1013.0
20260905220510 32 212 3.2 6.4 0.00 0.00 0.00 56 1013.0
20260905220019 32 212 0.0 4.8 0.00 0.00 0.00 54 1013.1
20260905215511 32 212 1.6 6.4 0.00 0.00 0.00 54 1013.1
20260905215007 32 212 3.2 8.0 0.00 0.00 0.00 56 1013.0
20260905214506 32 212 3.2 9.7 0.00 0.00 0.00 54 1013.1
20260905214003 32 182 1.6 9.7 0.00 0.00 0.00 56 1013.2
20260905213504 32 159 3.2 9.7 0.00 0.00 0.00 55 1013.3
20260905213011 31 154 3.2 8.0 0.00 0.00 0.00 55 1013.2
20260905212504 32 145 4.8 8.0 0.00 0.00 0.00 52 1013.4
20260905212005 32 209 4.8 6.4 0.00 0.00 0.00 51 1013.4
20260905211534 31 209 1.6 6.4 0.00 0.00 0.00 53 1013.5
20260905211008 31 209 1.6 6.4 0.00 0.00 0.00 55 1013.5
20260905210508 31 209 0.0 8.0 0.00 0.00 0.00 55 1013.6
20260905210019 31 209 3.2 8.0 0.00 0.00 0.00 55 1013.6
20260905205511 31 219 4.8 8.0 0.00 0.00 0.00 55 1013.5
20260905205011 31 219 1.6 11.3 0.00 0.00 0.00 55 1013.4
20260905204524 31 219 1.6 11.3 0.00 0.00 0.00 54 1013.4
20260905204011 32 224 3.2 11.3 0.00 0.00 0.00 53 1013.5
20260905203513 31 191 1.6 6.4 0.00 0.00 0.00 57 1013.7
20260905203030 31 191 3.2 8.0 0.00 0.00 0.00 55 1013.7
20260905202502 31 191 3.2 8.0 0.00 0.00 0.00 55 1013.7
20260905202006 30 223 0.0 3.2 0.00 0.00 0.00 60 1013.8
20260905201512 29 223 0.0 3.2 0.00 0.00 0.00 63 1013.9
20260905201003 29 223 0.0 3.2 0.00 0.00 0.00 63 1013.8
20260905200509 29 223 1.6 3.2 0.00 0.00 0.00 61 1013.7
20260905200021 30 223 0.0 8.0 0.00 0.00 0.00 62 1013.8
20260905195512 30 223 1.6 11.3 0.00 0.00 0.00 59 1013.9
20260905195016 29 223 4.8 11.3 0.00 0.00 0.00 60 1014.0
20260905194523 28 255 4.8 11.3 0.00 0.00 0.00 63 1014.2
20260905194013 27 210 0.0 8.0 0.00 0.00 0.00 65 1014.3
20260905193511 27 210 3.2 12.9 0.00 0.00 0.00 65 1014.3
20260905193027 27 231 3.2 16.1 0.00 0.00 0.00 64 1014.5
20260905192513 28 267 8.0 16.1 0.00 0.00 0.00 64 1014.6
20260905192013 28 257 8.0 16.1 0.00 0.00 0.00 65 1014.8
20260905191527 28 294 4.8 14.5 0.00 0.00 0.00 67 1014.8
20260905191011 28 287 3.2 8.0 0.00 0.00 0.00 70 1014.8
20260905190507 29 279 3.2 9.7 0.00 0.00 0.00 70 1014.9
20260905190015 29 269 0.0 9.7 0.00 0.00 0.00 71 1014.7
20260905185510 30 259 3.2 8.0 0.00 0.00 0.00 70 1014.5
20260905185008 30 236 3.2 16.1 0.00 0.00 0.00 68 1014.5
20260905184521 30 310 4.8 16.1 0.00 0.00 0.00 68 1014.8
20260905184010 31 327 4.8 16.1 0.00 0.00 0.00 67 1014.7
20260905183513 31 262 0.0 4.8 0.00 0.00 0.00 66 1014.4
20260905183028 31 262 1.6 8.0 0.00 0.00 0.00 65 1014.6
20260905182513 31 304 3.2 8.0 0.00 0.00 0.00 63 1014.5
20260905182016 31 305 1.6 6.4 0.00 0.00 0.00 63 1014.6
20260905181531 32 5 1.6 8.0 0.00 0.00 0.00 63 1014.9
20260905181015 32 326 3.2 12.9 0.00 0.00 0.00 61 1014.8
20260905180517 32 333 3.2 12.9 0.00 0.00 0.00 61 1014.7
20260905180030 32 325 3.2 12.9 0.00 0.00 0.00 60 1014.9
20260905175516 32 10 6.4 14.5 0.00 0.00 0.00 58 1014.9
20260905175008 32 355 6.4 14.5 0.00 0.00 0.00 58 1014.9
20260905174518 33 355 4.8 14.5 0.00 0.00 0.00 57 1014.9
20260905174011 33 293 6.4 14.5 0.00 0.00 0.00 55 1014.9
20260905173510 34 342 9.7 20.9 0.00 0.00 0.00 57 1014.8
20260905173020 33 25 6.4 20.9 0.00 0.00 0.00 56 1014.9
20260905172512 34 329 4.8 12.9 0.00 0.00 0.00 53 1014.9
20260905172014 34 355 4.8 12.9 0.00 0.00 0.00 56 1015.0
20260905171541 34 320 1.6 9.7 0.00 0.00 0.00 58 1015.1
20260905171018 34 324 0.0 14.5 0.00 0.00 0.00 59 1015.1
20260905170514 33 280 4.8 14.5 0.00 0.00 0.00 58 1015.2
20260905170032 33 223 1.6 14.5 0.00 0.00 0.00 57 1015.2
20260905165513 34 346 6.4 14.5 0.00 0.00 0.00 57 1015.3
20260905165013 33 309 1.6 6.4 0.00 0.00 0.00 60 1015.4
20260905164532 33 80 1.6 12.9 0.00 0.00 0.00 61 1015.3
20260905164018 33 32 6.4 12.9 0.00 0.00 0.00 59 1015.5
20260905163517 33 34 3.2 12.9 0.00 0.00 0.00 62 1015.5
20260905163020 32 247 3.2 17.7 0.00 0.00 0.00 58 1015.7
20260905162510 33 301 8.0 17.7 0.00 0.00 0.00 59 1015.8
20260905162015 32 46 3.2 14.5 0.00 0.00 0.00 61 1015.8
20260905161535 32 355 6.4 14.5 0.00 0.00 0.00 59 1015.8
20260905161015 32 307 1.6 12.9 0.00 0.00 0.00 62 1015.7
20260905160512 32 298 3.2 12.9 0.00 0.00 0.00 62 1015.8
20260905160006 32 5 4.8 12.9 0.00 0.00 0.00 62 1016.0
20260905155503 32 319 1.6 9.7 0.00 0.00 0.00 61 1016.0
20260905155003 32 317 1.6 9.7 0.00 0.00 0.00 68 1016.0
20260905154540 32 262 1.6 9.7 0.00 0.00 0.00 63 1016.0
20260905154004 31 248 1.6 9.7 0.00 0.00 0.00 65 1016.0
20260905153510 31 273 0.0 6.4 0.00 0.00 0.00 66 1016.0
20260905153017 31 221 3.2 8.0 0.00 0.00 0.00 67 1016.0
20260905152504 31 221 3.2 8.0 0.00 0.00 0.00 68 1016.1
20260905152002 31 233 3.2 6.4 0.00 0.00 0.00 65 1016.1
20260905151503 31 280 1.6 6.4 0.00 0.00 0.00 68 1016.2
20260905151002 30 217 1.6 4.8 0.00 0.00 0.00 67 1016.1
20260905150502 30 217 3.2 4.8 0.00 0.00 0.00 68 1016.3
20260905150003 30 217 1.6 8.0 0.00 0.00 0.00 68 1016.2
20260905145503 30 217 3.2 8.0 0.00 0.00 0.00 69 1016.1
20260905145004 30 217 0.0 4.8 0.00 0.00 0.00 72 1016.3
20260905144507 28 217 1.6 4.8 0.00 0.00 0.00 74 1016.3
20260905144003 28 217 1.6 4.8 0.00 0.00 0.00 76 1016.2
20260905143505 27 217 1.6 8.0 0.00 0.00 0.00 79 1016.4
20260905143012 27 217 1.6 8.0 0.00 0.00 0.00 81 1016.5
20260905142504 26 217 3.2 6.4 0.00 0.00 0.00 82 1016.4
20260905142012 26 232 1.6 6.4 0.00 0.00 0.00 86 1016.4
20260905141523 25 232 0.0 0.0 0.00 0.00 0.00 90 1016.5
20260905141010 25 232 0.0 1.6 0.00 0.00 0.00 92 1016.5
20260905140503 24 232 0.0 1.6 0.00 0.00 0.00 95 1016.5
20260905140004 24 232 0.0 0.0 0.00 0.00 0.00 95 1016.5
20260905135503 23 74 0.0 0.0 0.00 0.00 0.00 96 1016.6
20260905135004 23 74 0.0 0.0 0.00 0.00 0.00 96 1016.6
20260905134503 23 74 0.0 0.0 0.00 0.00 0.00 96 1016.6
20260905134005 23 74 0.0 0.0 0.00 0.00 0.00 96 1016.6
20260905133503 23 78 0.0 0.0 0.00 0.00 0.00 96 1016.6
20260905133011 23 69 0.0 0.0 0.00 0.00 0.00 96 1016.7
20260905132506 23 63 0.0 0.0 0.00 0.00 0.00 96 1016.7
20260905132010 23 63 0.0 0.0 0.00 0.00 0.00 96 1016.7
20260905131514 22 63 0.0 0.0 0.00 0.00 0.00 96 1016.8
20260905131009 22 63 0.0 0.0 0.00 0.00 0.00 96 1016.8
20260905130509 22 63 0.0 0.0 0.00 0.00 0.00 96 1016.8
20260905130024 22 63 0.0 0.0 0.00 0.00 0.00 96 1016.8
20260905125513 22 63 0.0 0.0 0.00 0.00 0.00 96 1016.8
20260905125003 22 43 0.0 0.0 0.00 0.00 0.00 96 1016.9
20260905124503 22 45 0.0 0.0 0.00 0.00 0.00 96 1016.9
20260905124002 22 45 0.0 0.0 0.00 0.00 0.00 96 1016.8
20260905123504 22 45 0.0 0.0 0.00 0.00 0.00 96 1016.8
20260905123008 22 192 0.0 0.0 0.00 0.00 0.00 96 1016.8
20260905122506 22 192 0.0 0.0 0.00 0.00 0.00 96 1016.7
20260905122006 22 192 0.0 0.0 0.00 0.00 0.00 96 1016.7
20260905121512 22 192 0.0 0.0 0.00 0.00 0.00 96 1016.7
20260905121007 22 192 0.0 0.0 0.00 0.00 0.00 96 1016.6
20260905120508 22 192 0.0 0.0 0.00 0.00 0.00 96 1016.5
20260905120015 22 192 0.0 0.0 0.00 0.00 0.00 95 1016.5
20260905115508 22 192 0.0 0.0 0.00 0.00 0.00 95 1016.4
20260905115010 21 192 0.0 0.0 0.00 0.00 0.00 95 1016.3
20260905114525 21 192 0.0 0.0 0.00 0.00 0.00 95 1016.3
20260905114013 21 192 0.0 0.0 0.00 0.00 0.00 95 1016.1
20260905113513 21 192 0.0 0.0 0.00 0.00 0.00 95 1016.0
20260905113008 21 192 0.0 0.0 0.00 0.00 0.00 95 1016.0
20260905112502 21 192 0.0 0.0 0.00 0.00 0.00 95 1016.0
20260905112003 21 192 0.0 0.0 0.00 0.00 0.00 94 1015.9
20260905111510 21 192 0.0 0.0 0.00 0.00 0.00 94 1015.9
20260905111003 21 192 0.0 0.0 0.00 0.00 0.00 94 1015.9
20260905110509 21 192 0.0 0.0 0.00 0.00 0.00 94 1015.8
20260905110016 21 192 0.0 0.0 0.00 0.00 0.00 94 1015.7
20260905105506 21 192 0.0 0.0 0.00 0.00 0.00 94 1015.7
20260905105010 21 192 0.0 0.0 0.00 0.00 0.00 94 1015.6
20260905104535 21 192 0.0 0.0 0.00 0.00 0.00 94 1015.6
20260905104011 21 192 0.0 0.0 0.00 0.00 0.00 93 1015.5
20260905103513 21 192 0.0 0.0 0.00 0.00 0.00 93 1015.5
20260905103032 21 192 0.0 0.0 0.00 0.00 0.00 93 1015.4
20260905102515 21 192 0.0 0.0 0.00 0.00 0.00 93 1015.3
20260905102015 21 192 0.0 0.0 0.00 0.00 0.00 93 1015.4
20260905101531 21 192 0.0 0.0 0.00 0.00 0.00 93 1015.3
20260905101003 21 192 0.0 0.0 0.00 0.00 0.00 92 1015.3
20260905100502 21 192 0.0 0.0 0.00 0.00 0.00 93 1015.3
20260905100011 21 192 0.0 0.0 0.00 0.00 0.00 93 1015.3
20260905095507 21 192 0.0 0.0 0.00 0.00 0.00 93 1015.3
20260905095007 21 192 0.0 0.0 0.00 0.00 0.00 92 1015.2
20260905094519 21 192 0.0 0.0 0.00 0.00 0.00 92 1015.2
20260905094009 21 192 0.0 0.0 0.00 0.00 0.00 92 1015.2
20260905093511 21 192 0.0 0.0 0.00 0.00 0.00 92 1015.2
20260905093024 21 192 0.0 0.0 0.00 0.00 0.00 92 1015.1
20260905092519 21 192 0.0 0.0 0.00 0.00 0.00 92 1015.1
20260905092014 22 192 0.0 0.0 0.00 0.00 0.00 92 1015.0
20260905091527 22 192 0.0 0.0 0.00 0.00 0.00 92 1015.0
20260905091017 22 192 0.0 0.0 0.00 0.00 0.00 92 1015.0
20260905090513 22 192 0.0 0.0 0.00 0.00 0.00 92 1015.0
20260905090033 22 192 0.0 0.0 0.00 0.00 0.00 92 1015.0
20260905085503 22 192 0.0 0.0 0.00 0.00 0.00 92 1015.0
20260905085006 22 192 0.0 0.0 0.00 0.00 0.00 92 1015.0
20260905084522 22 192 0.0 0.0 0.00 0.00 0.00 92 1015.1
20260905084009 22 192 0.0 0.0 0.00 0.00 0.00 92 1015.1
20260905083508 22 192 0.0 0.0 0.00 0.00 0.00 92 1015.1
20260905083023 22 192 0.0 0.0 0.00 0.00 0.00 92 1015.0
20260905082512 22 192 0.0 0.0 0.00 0.00 0.00 92 1015.1
20260905082012 22 192 0.0 0.0 0.00 0.00 0.00 92 1015.2
20260905081527 22 192 0.0 0.0 0.00 0.00 0.00 92 1015.3
20260905081016 22 192 0.0 0.0 0.00 0.00 0.00 92 1015.2
20260905080513 22 192 0.0 0.0 0.00 0.00 0.00 92 1015.2
20260905080045 22 192 0.0 0.0 0.00 0.00 0.00 92 1015.2
20260905075514 22 192 0.0 0.0 0.00 0.00 0.00 92 1015.3
20260905075017 22 192 0.0 0.0 0.00 0.00 0.00 92 1015.3
20260905074531 22 192 0.0 0.0 0.00 0.00 0.00 92 1015.3
20260905074017 22 192 0.0 0.0 0.00 0.00 0.00 92 1015.3
20260905073506 22 192 0.0 0.0 0.00 0.00 0.00 92 1015.5
20260905073034 22 192 0.0 0.0 0.00 0.00 0.00 92 1015.4
20260905072510 22 192 0.0 0.0 0.00 0.00 0.00 92 1015.5
20260905072009 22 192 0.0 0.0 0.00 0.00 0.00 92 1015.5
20260905071524 22 192 0.0 0.0 0.00 0.00 0.00 92 1015.5
20260905071011 22 192 0.0 0.0 0.00 0.00 0.00 91 1015.6
20260905070516 22 192 0.0 0.0 0.00 0.00 0.00 91 1015.6
20260905070004 22 192 0.0 0.0 0.00 0.00 0.00 91 1015.6
20260905065503 22 192 0.0 0.0 0.00 0.00 0.00 91 1015.6
20260905065003 22 192 0.0 0.0 0.00 0.00 0.00 91 1015.6
20260905064510 22 192 0.0 0.0 0.00 0.00 0.00 91 1015.6
20260905064006 22 192 0.0 0.0 0.00 0.00 0.00 91 1015.7
20260905063507 22 192 0.0 0.0 0.00 0.00 0.00 91 1015.7
20260905063003 22 192 0.0 0.0 0.00 0.00 0.00 91 1015.7
20260905062501 22 192 0.0 0.0 0.00 0.00 0.00 91 1015.8
20260905062005 22 192 0.0 0.0 0.00 0.00 0.00 91 1015.8
20260905061503 22 192 0.0 0.0 0.00 0.00 0.00 91 1015.8
20260905061002 22 192 0.0 0.0 0.00 0.00 0.00 91 1015.9
20260905060502 22 192 0.0 0.0 0.00 0.00 0.00 91 1016.0
20260905060003 22 192 0.0 0.0 0.00 0.00 0.00 91 1015.9
20260905055502 23 192 0.0 0.0 0.00 0.00 0.00 91 1015.9
20260905055002 23 192 0.0 0.0 0.00 0.00 0.00 90 1015.9
20260905054507 23 192 0.0 0.0 0.00 0.00 0.00 90 1016.0
20260905054003 23 192 0.0 0.0 0.00 0.00 0.00 90 1016.0
20260905053503 23 192 0.0 0.0 0.00 0.00 0.00 90 1016.0
20260905053019 23 192 0.0 0.0 0.00 0.00 0.00 90 1016.0
20260905052506 23 192 0.0 0.0 0.00 0.00 0.00 90 1016.0
20260905052006 23 192 0.0 0.0 0.00 0.00 0.00 90 1016.1
20260905051517 23 192 0.0 0.0 0.00 0.00 0.00 89 1016.1
20260905051002 23 192 0.0 3.2 0.00 0.00 0.00 89 1016.1
20260905050505 23 192 0.0 3.2 0.00 0.00 0.00 89 1016.1
20260905050007 23 192 0.0 1.6 0.00 0.00 0.00 89 1016.0
20260905045503 23 192 0.0 1.6 0.00 0.00 0.00 89 1016.0
20260905045002 23 192 0.0 1.6 0.00 0.00 0.00 89 1016.0
20260905044509 23 192 0.0 0.0 0.00 0.00 0.00 89 1016.0
20260905044004 23 192 0.0 1.6 0.00 0.00 0.00 89 1016.0
20260905043503 23 192 0.0 8.0 0.00 0.00 0.00 89 1016.0
20260905043008 23 192 1.6 8.0 0.00 0.00 0.00 89 1016.1
20260905042508 23 192 6.4 8.0 0.00 0.00 0.00 88 1016.1
20260905042006 23 192 3.2 6.4 0.00 0.00 0.00 88 1016.1
20260905041516 24 192 4.8 6.4 0.00 0.00 0.00 88 1016.1
20260905041007 24 192 0.0 0.0 0.00 0.00 0.00 87 1016.0
20260905040508 24 192 0.0 1.6 0.00 0.00 0.00 87 1015.9
20260905040028 24 192 0.0 3.2 0.00 0.00 0.00 87 1016.0
20260905035511 24 192 0.0 3.2 0.00 0.00 0.00 87 1016.1
20260905035003 24 192 0.0 1.6 0.00 0.00 0.00 87 1016.1
20260905034506 25 192 0.0 1.6 0.00 0.00 0.00 86 1016.2
20260905034003 25 192 0.0 3.2 0.00 0.00 0.00 86 1016.1
20260905033503 25 192 0.0 3.2 0.00 0.00 0.00 86 1016.1
20260905033006 25 192 1.6 3.2 0.00 0.00 0.00 86 1016.1
20260905032508 25 192 1.6 3.2 0.00 0.00 0.00 86 1016.2
20260905032005 25 192 0.0 1.6 0.00 0.00 0.00 86 1016.3
20260905031512 25 192 0.0 0.0 0.00 0.00 0.00 86 1016.4
20260905031003 25 192 0.0 1.6 0.00 0.00 0.00 85 1016.5
20260905030506 25 192 0.0 1.6 0.00 0.00 0.00 85 1016.6
20260905030016 25 192 0.0 1.6 0.00 0.00 0.00 85 1016.5
20260905025511 25 192 0.0 4.8 0.00 0.00 0.00 85 1016.5
20260905025012 25 192 0.0 4.8 0.00 0.00 0.00 85 1016.6
20260905024523 25 192 1.6 4.8 0.00 0.00 0.00 85 1016.7
20260905024014 25 192 1.6 4.8 0.00 0.00 0.00 84 1016.6
20260905023503 25 192 0.0 8.0 0.00 0.00 0.00 84 1016.6
20260905023004 26 192 3.2 8.0 0.00 0.00 0.00 84 1016.5